Back to catalog

STARLINK-34017

AliveCommunicationsVLEO
NORAD 64339·PAYLOAD·🇺🇸 United States

Launched Jun 10, 2025 from Cape Canaveral Space Force Station

Loading…

Next Passes (next 24 hours)

TLE

FreshSource: CelesTrak SupGP

Epoch: Sep 15, 2026, 02:51 UTC

1 64339C 25124Y   26258.11923611  .00063083  00000+0  22851-2 0  2583
2 64339  42.9997 131.8933 0001450 273.3668   3.4862 15.27543095    15

Track STARLINK-34017 in real time with AllMySat

Download on the App Store